Location: *
(52.2090°N, 4.1550°W)
Time: 07:14:56
(UTC+00:00)

Cosmos 1844 - Pass Details

Date: 19 July 2019
Orbit: 823 x 867 km, 70.9° (Epoch: 25 August)

Event Time Altitude Azimuth Distance (km) Brightness Sun altitude
Rises 22:12:38 0° 326° (NNW) 3,382 9.0 -11.7°
Reaches altitude 10° 22:15:06 10° 322° (NW) 2,449 7.6 -11.9°
Maximum altitude 22:20:33 54° 247° (WSW) 1,014 4.2 -12.3°
Enters shadow 22:25:06 15° 174° (S) 2,120 5.2 -12.6°
